EW5196 Weather Reports


time (UTC)temp
C
wind
direction
speed
KPH
gust
KPH
rain 1hr
cm
rain 24hr
cm
rain mn
cm
humidity
%
barometer
mb
20260508182719 21 157 4.8 6.4 0.00 0.00 0.00 30 1016.4
20260508182216 21 128 1.6 6.4 0.00 0.00 0.00 33 1016.7
20260508181712 21 167 3.2 4.8 0.00 0.00 0.00 33 1016.9
20260508181209 20 104 3.2 8.0 0.00 0.00 0.00 33 1016.8
20260508180706 20 259 3.2 6.4 0.00 0.00 0.00 32 1016.6
20260508180203 20 144 4.8 6.4 0.00 0.00 0.00 35 1016.8
20260508175659 20 218 1.6 3.2 0.00 0.00 0.00 32 1016.8
20260508175156 20 352 0.0 3.2 0.00 0.00 0.00 32 1016.8
20260508174654 20 196 3.2 8.0 0.00 0.00 0.00 32 1016.8
20260508174150 20 148 1.6 4.8 0.00 0.00 0.00 34 1016.8
20260508173647 20 168 4.8 6.4 0.00 0.00 0.00 36 1016.8
20260508173143 20 119 1.6 4.8 0.00 0.00 0.00 34 1017.0
20260508172640 20 159 3.2 8.0 0.00 0.00 0.00 32 1017.0
20260508172137 20 151 3.2 4.8 0.00 0.00 0.00 35 1017.2
20260508171633 20 157 4.8 4.8 0.00 0.00 0.00 35 1017.1
20260508171130 20 123 3.2 4.8 0.00 0.00 0.00 37 1017.2
20260508170627 19 217 1.6 4.8 0.00 0.00 0.00 37 1017.4
20260508170125 19 174 1.6 8.0 0.00 0.00 0.00 31 1017.4
20260508165622 19 187 4.8 8.0 0.00 0.00 0.00 36 1017.5
20260508165118 18 153 4.8 8.0 0.00 0.00 0.00 38 1017.4
20260508164614 18 231 4.8 4.8 0.00 0.00 0.00 38 1017.7
20260508164112 18 141 3.2 4.8 0.00 0.00 0.00 38 1017.9
20260508163609 18 127 3.2 4.8 0.00 0.00 0.00 42 1017.8
20260508163106 18 43 3.2 4.8 0.00 0.00 0.00 40 1017.9
20260508162602 18 121 4.8 4.8 0.00 0.00 0.00 41 1017.8
20260508162100 18 154 1.6 3.2 0.00 0.00 0.00 39 1018.0
20260508161556 18 88 0.0 6.4 0.00 0.00 0.00 44 1018.3
20260508161054 18 235 3.2 4.8 0.00 0.00 0.00 41 1018.1
20260508160552 18 92 3.2 4.8 0.00 0.00 0.00 43 1018.1
20260508160049 17 165 3.2 4.8 0.00 0.00 0.00 41 1018.2
20260508155546 17 125 1.6 4.8 0.00 0.00 0.00 43 1018.2
20260508155043 17 140 1.6 6.4 0.00 0.00 0.00 44 1018.7
20260508154540 17 149 3.2 6.4 0.00 0.00 0.00 45 1018.5
20260508154037 17 136 4.8 4.8 0.00 0.00 0.00 43 1018.4
20260508153533 17 138 1.6 6.4 0.00 0.00 0.00 44 1018.5
20260508153030 17 243 3.2 6.4 0.00 0.00 0.00 40 1018.9
20260508152527 17 146 3.2 4.8 0.00 0.00 0.00 40 1018.7
20260508152022 16 146 4.8 6.4 0.00 0.00 0.00 42 1018.7
20260508151520 16 254 0.0 4.8 0.00 0.00 0.00 38 1018.8
20260508151016 16 146 3.2 4.8 0.00 0.00 0.00 39 1019.0
20260508150514 16 159 3.2 3.2 0.00 0.00 0.00 39 1018.9
20260508150009 16 143 0.0 1.6 0.00 0.00 0.00 35 1019.0
20260508145506 16 169 3.2 4.8 0.00 0.00 0.00 37 1019.1
20260508145002 16 139 4.8 4.8 0.00 0.00 0.00 37 1018.9
20260508144500 16 177 4.8 6.4 0.00 0.00 0.00 35 1019.1
20260508143957 16 187 3.2 4.8 0.00 0.00 0.00 38 1019.0
20260508143455 16 127 0.0 4.8 0.00 0.00 0.00 43 1019.0
20260508142951 16 169 3.2 4.8 0.00 0.00 0.00 43 1018.9
20260508142448 17 138 3.2 4.8 0.00 0.00 0.00 44 1018.9
20260508141944 17 143 3.2 4.8 0.00 0.00 0.00 46 1019.0
20260508141441 16 164 1.6 3.2 0.00 0.00 0.00 48 1019.0
20260508140939 16 145 4.8 4.8 0.00 0.00 0.00 47 1019.1
20260508140436 16 158 1.6 4.8 0.00 0.00 0.00 51 1018.9
20260508135931 15 196 1.6 3.2 0.00 0.00 0.00 57 1018.8
20260508135428 13 185 1.6 3.2 0.00 0.00 0.00 59 1018.9
20260508134925 13 142 3.2 4.8 0.00 0.00 0.00 65 1019.1
20260508134421 13 176 0.0 3.2 0.00 0.00 0.00 65 1019.0
20260508133918 13 184 3.2 4.8 0.00 0.00 0.00 73 1019.2
20260508133416 12 137 3.2 4.8 0.00 0.00 0.00 73 1019.1
20260508132912 12 128 3.2 4.8 0.00 0.00 0.00 81 1019.2
20260508132410 12 142 3.2 3.2 0.00 0.00 0.00 86 1019.0
20260508131907 11 140 3.2 3.2 0.00 0.00 0.00 91 1019.2
20260508131402 11 148 3.2 4.8 0.00 0.00 0.00 99 1019.0
20260508130859 11 150 3.2 3.2 0.00 0.00 0.00 99 1019.0
20260508130356 11 163 1.6 3.2 0.00 0.00 0.00 99 1018.9
20260508125852 10 152 3.2 3.2 0.00 0.00 0.00 99 1019.2
20260508125348 10 140 3.2 3.2 0.00 0.00 0.00 99 1019.1
20260508124846 10 150 3.2 3.2 0.00 0.00 0.00 99 1019.1
20260508124343 10 159 1.6 3.2 0.00 0.00 0.00 99 1019.1
20260508123841 10 148 3.2 3.2 0.00 0.00 0.00 99 1019.1
20260508123340 10 158 3.2 4.8 0.00 0.00 0.00 99 1018.8
20260508122836 10 151 3.2 4.8 0.00 0.00 0.00 99 1018.9
20260508122332 9 153 3.2 3.2 0.00 0.00 0.00 99 1019.1
20260508121830 9 160 3.2 3.2 0.00 0.00 0.00 99 1018.9
20260508121328 8 162 3.2 3.2 0.00 0.00 0.00 99 1018.8
20260508120826 8 161 1.6 3.2 0.00 0.00 0.00 99 1018.6
20260508120323 7 157 3.2 3.2 0.00 0.00 0.00 99 1018.6
20260508115820 7 157 3.2 3.2 0.00 0.00 0.00 99 1018.6
20260508115318 7 151 3.2 3.2 0.00 0.00 0.00 99 1018.5
20260508114814 7 168 3.2 3.2 0.00 0.00 0.00 99 1018.4
20260508114311 6 172 3.2 4.8 0.00 0.00 0.00 99 1018.2
20260508113808 6 149 3.2 3.2 0.00 0.00 0.00 99 1018.3
20260508113306 5 156 3.2 3.2 0.00 0.00 0.00 99 1018.2
20260508112802 5 152 3.2 3.2 0.00 0.00 0.00 99 1018.3
20260508112259 5 155 3.2 3.2 0.00 0.00 0.00 99 1018.2
20260508111755 5 157 3.2 3.2 0.00 0.00 0.00 99 1018.0
20260508111254 5 144 3.2 3.2 0.00 0.00 0.00 99 1018.0
20260508110750 5 140 3.2 3.2 0.00 0.00 0.00 99 1017.6
20260508110248 5 154 3.2 3.2 0.00 0.00 0.00 99 1017.7
20260508105742 5 145 3.2 4.8 0.00 0.00 0.00 99 1017.7
20260508105238 5 158 3.2 3.2 0.00 0.00 0.00 99 1017.6
20260508104736 5 141 3.2 3.2 0.00 0.00 0.00 99 1017.5
20260508104233 5 150 3.2 4.8 0.00 0.00 0.00 99 1017.5
20260508103730 5 154 3.2 4.8 0.00 0.00 0.00 99 1017.3
20260508103227 5 148 3.2 3.2 0.00 0.00 0.00 99 1017.4
20260508102724 5 156 3.2 3.2 0.00 0.00 0.00 99 1017.2
20260508102222 5 151 3.2 3.2 0.00 0.00 0.00 99 1017.3
20260508101719 5 141 3.2 3.2 0.00 0.00 0.00 99 1017.3
20260508101216 5 141 3.2 4.8 0.00 0.00 0.00 99 1017.0
20260508100714 6 148 3.2 3.2 0.00 0.00 0.00 99 1017.1
20260508100212 6 148 3.2 3.2 0.00 0.00 0.00 99 1017.0
20260508095708 6 148 3.2 3.2 0.00 0.00 0.00 99 1017.0
20260508095206 6 131 3.2 3.2 0.00 0.00 0.00 99 1016.8
20260508094702 6 151 3.2 4.8 0.00 0.00 0.00 99 1016.9
20260508094159 6 158 3.2 3.2 0.00 0.00 0.00 99 1016.9
20260508093656 6 152 3.2 4.8 0.00 0.00 0.00 99 1016.9
20260508093154 6 156 1.6 4.8 0.00 0.00 0.00 99 1016.7
20260508092651 6 145 3.2 4.8 0.00 0.00 0.00 99 1016.7
20260508092149 6 149 3.2 4.8 0.00 0.00 0.00 99 1016.4
20260508091646 6 140 3.2 4.8 0.00 0.00 0.00 99 1016.4
20260508091143 6 143 3.2 4.8 0.00 0.00 0.00 99 1016.4
20260508090641 6 154 3.2 3.2 0.00 0.00 0.00 99 1016.3
20260508090138 6 150 3.2 3.2 0.00 0.00 0.00 99 1016.4
20260508085634 6 150 3.2 3.2 0.00 0.00 0.00 99 1016.5
20260508085132 6 146 3.2 4.8 0.00 0.00 0.00 99 1016.0
20260508084628 5 136 3.2 4.8 0.00 0.00 0.00 99 1016.2
20260508084125 5 136 3.2 4.8 0.00 0.00 0.00 99 1016.2
20260508083622 5 150 3.2 3.2 0.00 0.00 0.00 99 1016.1
20260508083119 5 172 3.2 3.2 0.00 0.00 0.00 99 1016.1
20260508082615 5 149 3.2 4.8 0.00 0.00 0.00 99 1016.0
20260508082112 5 165 4.8 4.8 0.00 0.00 0.00 99 1015.9
20260508081610 5 152 3.2 4.8 0.00 0.00 0.00 99 1015.7
20260508081106 5 143 4.8 4.8 0.00 0.00 0.00 99 1015.6
20260508080604 5 144 3.2 4.8 0.00 0.00 0.00 99 1015.6
20260508075557 6 151 3.2 3.2 0.00 0.00 0.00 99 1015.7
20260508075055 6 156 3.2 3.2 0.00 0.00 0.00 99 1015.6
20260508074553 6 148 3.2 3.2 0.00 0.00 0.00 99 1015.7
20260508074049 6 139 3.2 3.2 0.00 0.00 0.00 99 1015.5
20260508073546 6 147 3.2 3.2 0.00 0.00 0.00 99 1015.6
20260508073044 6 145 3.2 3.2 0.00 0.00 0.00 99 1015.6
20260508072539 6 146 3.2 3.2 0.00 0.00 0.00 99 1015.6
20260508072037 6 135 3.2 3.2 0.00 0.00 0.00 99 1015.5
20260508071535 6 139 1.6 3.2 0.00 0.00 0.00 99 1015.4
20260508071032 6 134 3.2 3.2 0.00 0.00 0.00 99 1015.3
20260508070530 6 139 3.2 4.8 0.00 0.00 0.00 99 1015.4
20260508070028 6 145 3.2 3.2 0.00 0.00 0.00 99 1015.2
20260508065525 6 156 3.2 4.8 0.00 0.00 0.00 99 1015.2
20260508065023 6 144 3.2 3.2 0.00 0.00 0.00 99 1015.3
20260508064520 6 149 4.8 4.8 0.00 0.00 0.00 99 1015.4
20260508064018 6 153 3.2 3.2 0.00 0.00 0.00 99 1015.2
20260508063515 6 152 3.2 4.8 0.00 0.00 0.00 99 1015.3
20260508063013 6 159 3.2 3.2 0.00 0.00 0.00 99 1015.2
20260508062510 7 154 3.2 3.2 0.00 0.00 0.00 99 1015.0
20260508062007 7 156 3.2 3.2 0.00 0.00 0.00 99 1015.1
20260508061505 7 148 3.2 3.2 0.00 0.00 0.00 99 1015.0
20260508061002 7 151 3.2 3.2 0.00 0.00 0.00 99 1015.0
20260508060459 7 161 3.2 3.2 0.00 0.00 0.00 99 1014.8
20260508055954 7 135 3.2 3.2 0.00 0.00 0.00 99 1015.0
20260508055451 7 136 3.2 3.2 0.00 0.00 0.00 99 1015.0
20260508054948 7 145 3.2 3.2 0.00 0.00 0.00 99 1014.9
20260508054445 7 161 3.2 3.2 0.00 0.00 0.00 99 1014.9
20260508053942 7 146 3.2 3.2 0.00 0.00 0.00 99 1014.7
20260508053439 7 152 3.2 3.2 0.00 0.00 0.00 99 1014.6
20260508052937 7 145 3.2 3.2 0.00 0.00 0.00 99 1014.9
20260508052434 7 138 1.6 3.2 0.00 0.00 0.00 99 1014.7
20260508051930 7 149 3.2 3.2 0.00 0.00 0.00 99 1014.5
20260508051426 7 151 3.2 3.2 0.00 0.00 0.00 99 1014.9
20260508050922 8 147 3.2 4.8 0.00 0.00 0.00 99 1014.8
20260508050419 8 144 3.2 3.2 0.00 0.00 0.00 99 1014.6
20260508045915 8 141 3.2 3.2 0.00 0.00 0.00 99 1014.9
20260508045413 8 138 1.6 3.2 0.00 0.00 0.00 99 1014.6
20260508044910 8 133 1.6 3.2 0.00 0.00 0.00 99 1014.7
20260508044407 8 139 3.2 3.2 0.00 0.00 0.00 99 1014.4
20260508043902 8 143 3.2 3.2 0.00 0.00 0.00 99 1014.3
20260508043400 8 143 1.6 3.2 0.00 0.00 0.00 99 1014.3
20260508042856 8 155 3.2 3.2 0.00 0.00 0.00 98 1014.4
20260508042354 8 153 3.2 3.2 0.00 0.00 0.00 99 1014.6
20260508041851 8 154 3.2 3.2 0.00 0.00 0.00 99 1014.6
20260508041347 8 148 3.2 3.2 0.00 0.00 0.00 98 1014.3
20260508040844 8 146 3.2 3.2 0.00 0.00 0.00 98 1014.1
20260508040341 9 145 3.2 3.2 0.00 0.00 0.00 99 1014.5
20260508035839 9 154 3.2 3.2 0.00 0.20 0.20 99 1014.3
20260508035336 9 140 1.6 3.2 0.00 0.20 0.20 99 1014.3
20260508034833 9 137 3.2 3.2 0.00 0.20 0.20 99 1014.3
20260508034330 9 135 3.2 3.2 0.00 0.20 0.20 98 1014.3
20260508033826 9 154 3.2 3.2 0.00 0.20 0.20 98 1014.1
20260508033325 10 137 3.2 3.2 0.00 0.20 0.20 98 1014.1
20260508032822 10 139 3.2 3.2 0.00 0.20 0.20 98 1014.2
20260508032319 10 150 3.2 4.8 0.00 0.20 0.20 99 1014.2
20260508031816 9 165 1.6 3.2 0.00 0.20 0.20 98 1014.3
20260508031313 9 152 3.2 3.2 0.00 0.20 0.20 98 1014.1
20260508030809 9 137 3.2 3.2 0.00 0.20 0.20 98 1014.3
20260508030306 9 145 3.2 3.2 0.00 0.20 0.20 98 1014.1
20260508025802 9 150 3.2 4.8 0.00 0.20 0.20 98 1014.3
20260508025300 9 149 3.2 3.2 0.00 0.20 0.20 98 1014.0
20260508024756 10 148 3.2 4.8 0.00 0.20 0.20 98 1013.8
20260508024253 10 143 3.2 3.2 0.00 0.20 0.20 98 1013.9
20260508023750 10 150 3.2 4.8 0.00 0.20 0.20 98 1013.8
20260508023247 10 155 3.2 4.8 0.00 0.20 0.20 98 1013.9
20260508022743 10 142 3.2 3.2 0.00 0.20 0.20 98 1014.0
20260508022240 10 146 3.2 3.2 0.00 0.20 0.20 98 1013.7
20260508021737 10 146 3.2 4.8 0.00 0.20 0.20 98 1013.8
20260508021232 10 140 3.2 4.8 0.00 0.20 0.20 98 1013.9
20260508020729 10 142 3.2 4.8 0.00 0.20 0.20 98 1013.8
20260508020227 10 147 3.2 3.2 0.00 0.20 0.20 98 1013.7
20260508015724 10 151 3.2 4.8 0.00 0.20 0.20 97 1013.5
20260508015221 10 151 3.2 3.2 0.00 0.20 0.20 97 1013.5
20260508014717 10 151 3.2 4.8 0.00 0.20 0.20 97 1013.5
20260508014214 10 148 3.2 3.2 0.00 0.20 0.20 97 1013.4
20260508013710 10 141 3.2 3.2 0.00 0.20 0.20 97 1013.3
20260508013206 10 149 3.2 3.2 0.00 0.20 0.20 97 1013.5
20260508012705 10 148 3.2 3.2 0.00 0.20 0.20 97 1013.5
20260508012201 10 150 3.2 3.2 0.00 0.20 0.20 97 1013.8
20260508011659 10 145 3.2 3.2 0.00 0.20 0.20 97 1013.4
20260508011156 10 149 3.2 3.2 0.00 0.20 0.20 97 1013.5
20260508010653 10 145 3.2 3.2 0.00 0.20 0.20 97 1013.5
20260508010151 10 153 3.2 4.8 0.00 0.20 0.20 97 1013.6
20260508005647 10 145 3.2 3.2 0.00 0.20 0.20 96 1013.5
20260508005139 10 149 3.2 3.2 0.00 0.20 0.20 96 1013.3
20260508004634 10 153 3.2 4.8 0.00 0.20 0.20 96 1013.3
20260508004131 11 138 3.2 3.2 0.00 0.20 0.20 96 1013.4
20260508003627 11 139 3.2 3.2 0.00 0.20 0.20 96 1013.3
20260508003125 11 153 3.2 3.2 0.00 0.20 0.20 96 1013.2
20260508002621 11 149 3.2 3.2 0.00 0.20 0.20 96 1013.1
20260508002120 11 129 3.2 3.2 0.00 0.20 0.20 96 1012.9
20260508001614 11 146 3.2 3.2 0.00 0.20 0.20 95 1013.2
20260508001111 11 142 3.2 3.2 0.00 0.20 0.20 95 1013.1
20260508000606 11 146 3.2 3.2 0.00 0.20 0.20 95 1013.2
20260508000104 11 150 3.2 3.2 0.00 0.20 0.20 94 1012.9
20260507235600 11 146 3.2 3.2 0.00 0.20 0.20 94 1012.8
20260507235058 11 146 3.2 3.2 0.00 0.20 0.20 94 1012.5
20260507234554 11 155 3.2 3.2 0.00 0.20 0.20 94 1012.4
20260507234051 11 149 3.2 3.2 0.00 0.20 0.20 94 1012.5
20260507233547 11 151 3.2 3.2 0.00 0.20 0.20 94 1012.4
20260507233046 11 151 3.2 3.2 0.00 0.20 0.20 94 1012.4
20260507232536 11 138 3.2 3.2 0.00 0.20 0.20 93 1012.5
20260507232034 11 152 3.2 3.2 0.00 0.20 0.20 93 1012.4
20260507231530 11 140 3.2 3.2 0.00 0.20 0.20 93 1012.5
20260507231028 11 137 3.2 3.2 0.00 0.20 0.20 93 1012.1
20260507230524 12 130 3.2 3.2 0.00 0.20 0.20 93 1012.1
20260507230021 12 148 3.2 3.2 0.00 0.20 0.20 92 1011.9
20260507225516 12 142 3.2 3.2 0.00 0.20 0.20 92 1012.2
20260507225012 12 143 3.2 3.2 0.00 0.20 0.20 92 1012.0
20260507224508 12 140 3.2 4.8 0.00 0.20 0.20 92 1012.1
20260507224005 12 144 3.2 3.2 0.00 0.20 0.20 92 1012.2
20260507223500 12 140 3.2 3.2 0.00 0.20 0.20 90 1012.0
20260507222958 12 141 3.2 3.2 0.00 0.20 0.20 90 1012.0
20260507222455 12 151 3.2 3.2 0.00 0.20 0.20 91 1012.1
20260507221951 12 145 3.2 4.8 0.00 0.20 0.20 92 1012.1
20260507221448 11 145 3.2 3.2 0.00 0.20 0.20 90 1011.9
20260507220945 12 149 1.6 3.2 0.00 0.20 0.20 91 1011.9
20260507220443 12 124 3.2 3.2 0.00 0.20 0.20 92 1011.9
20260507215939 12 159 1.6 3.2 0.00 0.20 0.20 92 1011.7
20260507215435 12 157 3.2 4.8 0.00 0.20 0.20 92 1011.8
20260507214932 12 132 3.2 4.8 0.00 0.20 0.20 92 1011.8
20260507214430 12 141 3.2 3.2 0.00 0.20 0.20 92 1011.7
20260507213926 12 147 3.2 3.2 0.00 0.20 0.20 93 1011.8
20260507213422 12 141 3.2 3.2 0.00 0.20 0.20 93 1011.9
20260507212919 12 139 3.2 3.2 0.00 0.20 0.20 93 1011.8
20260507212415 12 137 3.2 3.2 0.00 0.20 0.20 93 1011.5
20260507211912 12 129 3.2 3.2 0.00 0.20 0.20 93 1011.2
20260507211409 12 138 3.2 3.2 0.00 0.20 0.20 93 1011.5
20260507210906 12 141 3.2 3.2 0.00 0.20 0.20 94 1011.6
20260507210403 11 135 3.2 4.8 0.00 0.20 0.20 93 1011.6
20260507205859 11 121 3.2 3.2 0.05 0.20 0.20 92 1011.6
20260507205356 11 122 1.6 3.2 0.05 0.20 0.20 94 1011.6
20260507204852 12 128 4.8 4.8 0.05 0.18 0.18 94 1011.9
20260507204349 11 131 1.6 3.2 0.23 0.18 0.18 93 1011.9
20260507203847 12 146 1.6 3.2 0.36 0.18 0.18 92 1011.8
20260507203345 12 145 3.2 4.8 0.23 0.15 0.15 91 1012.4
20260507202840 12 149 3.2 3.2 0.18 0.13 0.13 90 1011.7
20260507202337 12 134 3.2 4.8 0.13 0.10 0.10 89 1011.7
20260507201833 12 131 4.8 4.8 0.05 0.10 0.10 87 1011.9
20260507201328 12 149 3.2 4.8 0.00 0.08 0.08 84 1011.8
20260507200825 13 146 3.2 3.2 0.05 0.08 0.08 85 1011.9
20260507200321 13 151 3.2 4.8 0.05 0.08 0.08 84 1011.9
20260507195817 13 133 3.2 3.2 0.05 0.08 0.08 83 1012.1
20260507195315 13 187 3.2 3.2 0.00 0.05 0.05 82 1012.3
20260507194812 13 128 3.2 3.2 0.00 0.05 0.05 79 1012.5
20260507194308 13 140 3.2 3.2 0.00 0.05 0.05 79 1012.3
20260507193804 13 147 3.2 3.2 0.00 0.05 0.05 80 1012.0
20260507193301 13 140 3.2 4.8 0.00 0.05 0.05 76 1012.2
20260507192757 13 157 3.2 4.8 0.00 0.05 0.05 77 1012.3
20260507192254 13 136 3.2 6.4 0.00 0.05 0.05 74 1012.1
20260507191750 13 152 3.2 4.8 0.00 0.05 0.05 73 1012.1
20260507191247 13 154 3.2 4.8 0.00 0.05 0.05 71 1012.5
20260507190744 13 143 1.6 3.2 0.00 0.05 0.05 72 1012.5
20260507190243 13 154 4.8 4.8 0.00 0.05 0.05 71 1012.1
20260507185741 13 208 4.8 4.8 0.00 0.05 0.05 71 1012.4
20260507185237 13 83 1.6 4.8 0.00 0.05 0.05 72 1012.2
20260507184735 13 169 3.2 4.8 0.00 0.05 0.05 71 1012.4
20260507184232 13 77 0.0 4.8 0.00 0.05 0.05 71 1012.5
20260507183723 13 140 1.6 4.8 0.00 0.05 0.05 72 1012.4
20260507183220 13 146 1.6 4.8 0.00 0.05 0.05 72 1012.3